Notices

What's New in latest Release from April 7th, 2021:

- Updated Glossary, including Speed of Maximum Gust, and Total Hourly Precipitation

- Updated national and regional climate services offices contacts and prices information

- Addition of station inventory lists for 1981-2010, 1971-2000, and 1961-1990 Normals.

If you haven't already, please take our survey and provide feedback about our website: https://eccc.sondage-survey.ca/f/LanguageSelection.aspx?s=442ca660-fcf1-47c0-95a9-59707d6fd709

Hourly Data Report for October 23, 2019

SAINT JOHN A
NEW BRUNSWICK
Current Station Operator: NAVCAN

45°18'58.000" N
65°53'24.000" W
108.80 m
8104901
71609
YSJ

Download Data

Hourly Data (October 2019)
Hourly Data Report for October 23, 2019
TIME
LST
Temp Definition
°C
Dew Point Definition
°C
Rel Hum Definition
%
Precip. Amount Definition
mm

Wind Dir Definition
10's deg

Wind Spd Definition
km/h
Visibility Definition
km
Stn Press Definition
kPa
Hmdx Definition


Wind Chill Definition


Weather Definition


00:00 9.0 6.5 84   12 23 24.1 100.85     LegendNANA
01:00 8.8 6.6 86   10 25 24.1 100.81     LegendNANA
02:00 8.6 6.3 86   11 25 24.1 100.72     Cloudy
03:00 8.4 6.1 86   11 23 24.1 100.62     LegendNANA
04:00 8.5 6.1 85   11 26 24.1 100.57     LegendNANA
05:00 8.8 6.0 83   11 24 24.1 100.51     Cloudy
06:00 8.9 5.9 82   11 34 24.1 100.39     LegendNANA
07:00 9.1 6.2 82   11 33 24.1 100.34     LegendNANA
08:00 9.6 6.6 82   12 33 24.1 100.28     Cloudy
09:00 10.1 7.2 82   11 34 24.1 100.19     LegendNANA
10:00 10.0 8.6 91   12 39 8.1 100.00     Rain,Fog
11:00 10.8 8.9 88   12 39 16.1 99.88     Rain
12:00 11.5 9.4 87   11 32 16.1 99.70     Rain
13:00 11.7 9.8 88   12 40 12.9 99.51     Rain
14:00 11.4 10.7 96   12 33 3.2 99.44     Heavy Rain,Fog
15:00 11.7 11.3 97   12 34 3.2 99.23     Heavy Rain,Fog
16:00 12.0 11.7 98   15 17 4.8 99.28     Moderate Rain,Fog
17:00 12.4 12.1 98   12 21 4.8 99.19     Moderate Rain,Fog
18:00 12.6 12.4 98   13 17 4.8 99.12     Moderate Rain,Fog
19:00 13.3 13.1 99   14 19 3.2 99.07     Drizzle,Fog
20:00 13.2 13.0 99   22 18 1.6 99.15     Drizzle,Fog
21:00 11.1 9.8 91   29 28 24.1 99.38     LegendNANA
22:00 9.7 7.8 88   31 27 24.1 99.60     LegendNANA
23:00 8.4 7.0 91   29 16 24.1 99.77     Mainly Clear

Notes on Data Quality.

Legend

  • E = Estimated
  • M = Missing
  • NA = Not Available*
  • [empty] = Indicates an unobserved value
Date modified: